P/2020 U2 ( PanSTARRS )

Japanese version
Home page
Updated on October 29, 2020

---------------------------------------------------------------------

* Profile

Discovery Date October 20, 2020
Magnitude 21.7 mag
Discoverer Pan-STARRS 1 telescope (Haleakala)

* Orbital Elements

Epoch 2020 Dec. 17.0 TT = JDT 2459200.5                                         
T 2020 Dec. 25.70177 TT                                 Rudenko                 
q   1.8489535            (2000.0)            P               Q                  
n   0.13424048     Peri.   84.64202     +0.38010591     -0.92435841             
a   3.7775805      Node   342.90394     +0.79815212     +0.34575716             
e   0.5105456      Incl.    6.42156     +0.46741061     +0.16128706             
P   7.34                                                                        
From 43 observations 2020 Sept. 17-Oct. 26, mean residual 0".3.                 

* Magnitudes Graph

        m1 = 18.0 + 5 log d + 10.0 log r

---------------------------------------------------------------------

The orbital elements are published on M.P.E.C. 2020-U252.
The magnitudes graphs are made with Comet for Windows.

---------------------------------------------------------------------

Copyright(C) Seiichi Yoshida (comet@aerith.net). All rights reserved.